Regional Weather Roundup
Issued by NWS

Home | Current Version | Previous Version | Text Only | Print | Product List | Glossary On
Versions: 1 2 3 4 5 6 7 8 9 10 11 12 13 14 15 16 17 18 19 20 21 22 23 24 25 26 27 28 29 30 31 32 33 34 35 36 37 38 39 40 41 42 43 44 45 46 47 48 49 50
000
ASUS44 KFWD 290201
RWRTX
NORTH TEXAS HOURLY WEATHER ROUNDUP
NATIONAL WEATHER SERVICE FORT WORTH TX
900 PM CDT MON JUL 28 2014

NOTE: "FAIR" INDICATES FEW OR NO CLOUDS BELOW 12,000 FEET WITH NO
SIGNIFICANT WEATHER AND/OR OBSTRUCTIONS TO VISIBILITY.

TXZ118-119-290300-
DALLAS/FORT WORTH METROPLEX

CITY           SKY/WX    TMP DP  RH WIND       PRES   REMARKS
DFW AIRPORT    PTCLDY    85  62  46 N10       30.08R
DALLAS LOVE    MOCLDY    86  62  44 NE9       30.07S
FTW MEACHAM    PTCLDY    84  63  49 N9        30.08R
DAL-EXECUTIVE  MOCLDY    87  61  41 NE8       30.07S
FTW-ALLIANCE   PTCLDY    82  63  52 N7        30.09R
FTW-NAS-JRB    MOCLDY    87  61  41 NE8       30.13R
FTW-SPINKS     MOCLDY    83  63  51 CALM      30.09R
ARLINGTON      MOCLDY    87  61  41 NE8       30.07R
GRAND PRAIRIE  PTCLDY    86  60  40 NE7       30.08S
LANCASTER      CLOUDY    84  61  46 NE5       30.07S
$$

TXZ091>094-102>105-117-120-121-131>134-290300-
NORTH CENTRAL TEXAS

CITY           SKY/WX    TMP DP  RH WIND       PRES   REMARKS
SHRMAN/DENISON MOCLDY    80  64  56 CALM      30.12R
GAINESVILLE    CLEAR     78  63  60 N3        30.14R
BOWIE          CLEAR     76  67  75 N3        30.14R
BRIDGEPORT     PTCLDY    80  61  53 NE5       30.13S
DECATUR        CLEAR     77  63  61 NE3       30.13R
DENTON         CLEAR     78  63  59 N6        30.10R
MCKINNEY       MOCLDY    81  62  52 NE5       30.09R
GREENVILLE     MOCLDY    81  59  47 MISG      30.08F
ROCKWALL       MOCLDY    81  62  52 N3        30.08R
TERRELL        CLOUDY    87  59  38 N9        30.07R
WAXAHACHIE     MOCLDY    83  60  46 E3        30.08F
CLEBURNE       MOCLDY    86  61  42 E5        30.09S
GRANBURY       PTCLDY    86  57  37 CALM      30.09R
$$

TXZ083>090-098>101-113>116-127>130-139>142-154-155-290300-
WESTERN NORTH TEXAS

CITY           SKY/WX    TMP DP  RH WIND       PRES   REMARKS
WICHITA FALLS  PTCLDY    74  69  85 N3        30.13R
WF-KICKAPOO    PTCLDY    77  65  67 N3        30.15R
VERNON         MOCLDY    76  66  70 CALM      30.16S
ABILENE        PTCLDY    86  62  44 E9        30.12R
ABILENE-DYESS  PTCLDY    86  64  48 E7        30.11R
BRECKENRIDGE   PTCLDY    85  62  45 NE8       30.10S
GRAHAM         MOCLDY    79  63  57 N6        30.11S
MINERAL WELLS  PTCLDY    82  56  40 NE8       30.10R
STEPHENVILLE   PTCLDY    83  61  47 CALM      30.13R
COMANCHE       MOCLDY    81  64  56 NE3       30.10S
BROWNWOOD      MOCLDY    84  64  51 E9        30.09S
COLEMAN        MOCLDY    84  63  49 E9        30.10S
BRADY          CLEAR     86  66  51 E13       30.09R
$$

TXZ143>147-156>162-174-175-290300-
CENTRAL TEXAS

CITY           SKY/WX    TMP DP  RH WIND       PRES   REMARKS
WACO           CLOUDY    79  70  74 E3        30.06S
WACO-TSTC      CLEAR     77  72  83 NE6       30.05S
WACO-MCGREGOR  CLOUDY    82  66  57 E3        30.08S
HILLSBORO      CLOUDY    77  70  79 E3        30.08S
CORSICANA      CLOUDY    78  70  76 CALM      30.07S
MEXIA          CLOUDY    76  71  83 NE5       30.05F
CAMERON        MOCLDY    84  73  69 NE3       30.05R
TEMPLE         CLOUDY    82  66  57 NE12      30.06S
KILLEEN        MOCLDY    84  70  61 NE8       30.07R
KILLEEN-SKYLRK CLOUDY    86  66  51 E14G20    30.07R
FORT HOOD      CLOUDY    87  68  52 NE8G17    30.07R HX  90
GATESVILLE     CLOUDY    82  70  65 E6        30.09S
HAMILTON       CLOUDY    82  70  67 E6        30.10S
LAMPASAS       MOCLDY    84  69  61 NE8       30.07S
$$

TXZ095>097-106>112-122>126-135>138-148>153-164>167-290300-
EAST TEXAS

CITY           SKY/WX    TMP DP  RH WIND       PRES   REMARKS
PARIS          MOCLDY    79  63  57 N6        30.10S
SULPHUR SPRNGS MOCLDY    81  67  62 N5        30.09F
CLARKSVILLE    MOCLDY    80  65  61 N3        30.08S
MOUNT PLEASANT MOCLDY    80  65  59 N5        30.08S
GILMER         CLOUDY    82  72  69 N6        30.07S
MINEOLA        CLOUDY    82  68  61 CALM      30.06F
TYLER          CLOUDY    78  73  84 CALM      30.05F
LONGVIEW       CLOUDY    77  72  84 CALM      30.03F
MARSHALL       CLOUDY    80  76  88 CALM      30.07F
ATHENS         CLOUDY    72  72 100 CALM      30.05S
JACKSONVILLE   CLOUDY    74  72  92 CALM      30.08R
HENDERSON      CLOUDY    73  73  99 CALM      30.06S
NACOGDOCHES    CLOUDY    73  72  94 SW3       30.05S
LUFKIN         CLOUDY    77  72  84 E7        30.03F
$$

SUPPLEMENTAL OBSERVATIONS (CENTRAL)

CITY           SKY/WX    TMP DP  RH WIND       PRES   REMARKS
$$

SUPPLEMENTAL OBSERVATIONS (WEST)

CITY           SKY/WX    TMP DP  RH WIND       PRES   REMARKS
$$

SUPPLEMENTAL OBSERVATIONS (EAST)

CITY           SKY/WX    TMP DP  RH WIND       PRES   REMARKS
$$

SUPPLEMENTAL OBSERVATIONS ARE A COLLECTION OF AUTOMATED INSTRUMENTS
THAT ARE MAINTAINED BY A VARIETY OF FEDERAL AND STATE AGENCIES.
CERTAIN ELEMENTS...SUCH AS HUMIDITY VALUES AND SUSTAINED WIND
SPEEDS...MAY BE APPROXIMATED.




USA.gov is the U.S. government's official web portal to all federal, state and local government web resources and services.